| time (UTC) | temp F | wind direction | speed MPH | gust MPH | rain 1hr in | rain 24hr in | rain mn in | humidity % | barometer mb |
| 20260904033536 | 58 | 338 | 1.0 | 2.0 | 0.00 | 0.34 | 0.34 | 67 | 1011.1 |
| 20260904032017 | 58 | 0 | 2.0 | 4.0 | 0.00 | 0.34 | 0.34 | 67 | 1010.9 |
| 20260904030517 | 59 | 315 | 1.0 | 3.0 | 0.00 | 0.34 | 0.34 | 66 | 1010.7 |
| 20260904025036 | 58 | 225 | 1.0 | 3.0 | 0.00 | 0.34 | 0.34 | 70 | 1010.7 |
| 20260904023516 | 58 | 225 | 1.0 | 2.0 | 0.00 | 0.34 | 0.34 | 73 | 1010.7 |
| 20260904022016 | 59 | 0.0 | 1.0 | 0.00 | 0.34 | 0.34 | 70 | 1010.6 | |
| 20260904020516 | 59 | 225 | 1.0 | 2.0 | 0.00 | 0.34 | 0.34 | 70 | 1010.7 |
| 20260904015016 | 60 | 0.0 | 0.0 | 0.00 | 0.34 | 0.34 | 69 | 1010.6 | |
| 20260904013516 | 60 | 225 | 1.0 | 2.0 | 0.00 | 0.34 | 0.34 | 68 | 1010.7 |
| 20260904012016 | 61 | 225 | 1.0 | 2.0 | 0.00 | 0.34 | 0.34 | 67 | 1010.6 |
| 20260904010516 | 62 | 225 | 1.0 | 2.0 | 0.00 | 0.34 | 0.34 | 65 | 1010.6 |
| 20260904005016 | 62 | 225 | 2.0 | 4.0 | 0.00 | 0.34 | 0.34 | 61 | 1010.6 |
| 20260904003516 | 63 | 135 | 1.0 | 3.0 | 0.00 | 0.34 | 0.34 | 58 | 1010.6 |
| 20260904002016 | 63 | 90 | 1.0 | 3.0 | 0.00 | 0.34 | 0.34 | 60 | 1010.7 |
| 20260904000517 | 63 | 68 | 2.0 | 4.0 | 0.00 | 0.34 | 0.34 | 60 | 1010.7 |
| 20260903235016 | 64 | 113 | 1.0 | 3.0 | 0.00 | 0.34 | 0.34 | 54 | 1010.7 |
| 20260903233536 | 63 | 158 | 2.0 | 3.0 | 0.00 | 0.34 | 0.34 | 54 | 1010.8 |
| 20260903232016 | 63 | 135 | 1.0 | 3.0 | 0.00 | 0.34 | 0.34 | 62 | 1010.8 |
| 20260903230516 | 64 | 135 | 3.0 | 4.0 | 0.00 | 0.34 | 0.34 | 64 | 1011.0 |
| 20260903225016 | 64 | 135 | 2.0 | 5.0 | 0.00 | 0.34 | 0.34 | 63 | 1011.1 |
| 20260903223536 | 62 | 158 | 2.0 | 5.0 | 0.00 | 0.34 | 0.34 | 69 | 1011.0 |
| 20260903222016 | 62 | 135 | 2.0 | 4.0 | 0.00 | 0.34 | 0.34 | 68 | 1011.2 |
| 20260903220516 | 62 | 135 | 1.0 | 3.0 | 0.00 | 0.34 | 0.34 | 65 | 1011.0 |
| 20260903215016 | 61 | 113 | 1.0 | 2.0 | 0.00 | 0.34 | 0.34 | 67 | 1011.2 |
| 20260903213516 | 61 | 113 | 2.0 | 4.0 | 0.00 | 0.34 | 0.34 | 68 | 1011.4 |
| 20260903212036 | 62 | 158 | 2.0 | 4.0 | 0.00 | 0.34 | 0.34 | 71 | 1011.5 |
| 20260903210516 | 59 | 225 | 1.0 | 4.0 | 0.00 | 0.34 | 0.34 | 78 | 1011.5 |
| 20260903205016 | 59 | 248 | 2.0 | 5.0 | 0.00 | 0.34 | 0.34 | 81 | 1011.4 |
| 20260903203516 | 58 | 248 | 2.0 | 5.0 | 0.01 | 0.34 | 0.34 | 83 | 1011.3 |
| 20260903202016 | 58 | 203 | 3.0 | 5.0 | 0.02 | 0.34 | 0.34 | 83 | 1011.5 |
| 20260903200516 | 58 | 248 | 2.0 | 5.0 | 0.06 | 0.34 | 0.34 | 86 | 1011.3 |
| 20260903195015 | 57 | 248 | 2.0 | 6.0 | 0.09 | 0.34 | 0.34 | 87 | 1011.4 |
| 20260903193515 | 56 | 270 | 2.0 | 7.0 | 0.10 | 0.33 | 0.33 | 88 | 1011.2 |
| 20260903192015 | 56 | 270 | 3.0 | 7.0 | 0.11 | 0.32 | 0.32 | 87 | 1011.2 |
| 20260903190515 | 56 | 248 | 3.0 | 7.0 | 0.08 | 0.28 | 0.28 | 87 | 1011.1 |
| 20260903185035 | 56 | 248 | 2.0 | 4.0 | 0.06 | 0.25 | 0.25 | 87 | 1011.0 |
| 20260903183515 | 56 | 248 | 3.0 | 6.0 | 0.05 | 0.23 | 0.23 | 86 | 1010.8 |
| 20260903182015 | 56 | 248 | 3.0 | 6.0 | 0.06 | 0.21 | 0.21 | 87 | 1010.7 |
| 20260903180535 | 56 | 248 | 2.0 | 5.0 | 0.08 | 0.20 | 0.20 | 89 | 1010.6 |
| 20260903175016 | 56 | 225 | 1.0 | 3.0 | 0.09 | 0.20 | 0.20 | 88 | 1010.5 |
| 20260903173515 | 56 | 203 | 1.0 | 3.0 | 0.09 | 0.18 | 0.18 | 87 | 1010.4 |
| 20260903172015 | 56 | 248 | 2.0 | 5.0 | 0.10 | 0.15 | 0.15 | 86 | 1010.3 |
| 20260903170515 | 57 | 180 | 4.0 | 10.0 | 0.12 | 0.13 | 0.13 | 86 | 1010.2 |
| 20260903165015 | 56 | 270 | 2.0 | 4.0 | 0.11 | 0.11 | 0.11 | 87 | 1010.0 |
| 20260903163515 | 56 | 248 | 4.0 | 8.0 | 0.09 | 0.09 | 0.09 | 86 | 1009.9 |
| 20260903162015 | 57 | 203 | 2.0 | 4.0 | 0.05 | 0.05 | 0.05 | 83 | 1009.9 |
| 20260903160538 | 58 | 225 | 2.0 | 7.0 | 0.01 | 0.01 | 0.01 | 81 | 1009.6 |
| 20260903155017 | 59 | 0.0 | 0.0 | 0.00 | 0.00 | 0.00 | 75 | 1009.6 | |
| 20260903153517 | 59 | 0.0 | 2.0 | 0.00 | 0.00 | 0.00 | 73 | 1009.6 | |
| 20260903152017 | 59 | 0.0 | 3.0 | 0.00 | 0.00 | 0.00 | 73 | 1009.4 | |
| 20260903150517 | 59 | 0.0 | 0.0 | 0.00 | 0.00 | 0.00 | 76 | 1009.2 | |
| 20260903145017 | 58 | 0.0 | 0.0 | 0.00 | 0.00 | 0.00 | 75 | 1009.0 | |
| 20260903143517 | 58 | 0.0 | 0.0 | 0.00 | 0.01 | 0.00 | 75 | 1008.8 | |
| 20260903142017 | 58 | 0.0 | 0.0 | 0.00 | 0.02 | 0.00 | 74 | 1008.6 | |
| 20260903140537 | 58 | 0.0 | 0.0 | 0.00 | 0.02 | 0.00 | 76 | 1008.6 | |
| 20260903135017 | 57 | 0.0 | 0.0 | 0.00 | 0.02 | 0.00 | 75 | 1008.5 | |
| 20260903133517 | 57 | 0.0 | 2.0 | 0.00 | 0.02 | 0.00 | 73 | 1008.4 | |
| 20260903132017 | 57 | 0.0 | 1.0 | 0.00 | 0.02 | 0.00 | 75 | 1008.3 | |
| 20260903130517 | 57 | 0.0 | 1.0 | 0.00 | 0.02 | 0.00 | 77 | 1008.3 | |
| 20260903125017 | 58 | 225 | 1.0 | 2.0 | 0.00 | 0.02 | 0.00 | 78 | 1008.3 |
| 20260903123537 | 58 | 225 | 1.0 | 3.0 | 0.00 | 0.02 | 0.00 | 78 | 1008.4 |
| 20260903122016 | 58 | 203 | 1.0 | 3.0 | 0.00 | 0.02 | 0.00 | 77 | 1008.2 |
| 20260903120516 | 58 | 248 | 1.0 | 4.0 | 0.00 | 0.02 | 0.00 | 76 | 1008.3 |
| 20260903115037 | 58 | 248 | 2.0 | 3.0 | 0.00 | 0.02 | 0.00 | 73 | 1008.1 |
| 20260903113517 | 57 | 248 | 1.0 | 2.0 | 0.00 | 0.02 | 0.00 | 76 | 1008.1 |
| 20260903112016 | 57 | 0.0 | 1.0 | 0.00 | 0.02 | 0.00 | 77 | 1007.9 | |
| 20260903110517 | 57 | 0.0 | 2.0 | 0.00 | 0.02 | 0.00 | 76 | 1008.0 | |
| 20260903105017 | 58 | 0.0 | 2.0 | 0.00 | 0.02 | 0.00 | 72 | 1007.9 | |
| 20260903103517 | 58 | 270 | 1.0 | 4.0 | 0.00 | 0.02 | 0.00 | 72 | 1007.9 |
| 20260903102017 | 58 | 0.0 | 2.0 | 0.00 | 0.02 | 0.00 | 79 | 1007.9 | |
| 20260903100516 | 58 | 0.0 | 2.0 | 0.00 | 0.02 | 0.00 | 78 | 1007.8 | |
| 20260903095016 | 58 | 0.0 | 1.0 | 0.00 | 0.02 | 0.00 | 74 | 1007.7 | |
| 20260903093516 | 58 | 338 | 2.0 | 4.0 | 0.00 | 0.02 | 0.00 | 74 | 1007.5 |
| 20260903092036 | 60 | 180 | 3.0 | 8.0 | 0.00 | 0.02 | 0.00 | 68 | 1007.3 |
| 20260903090536 | 60 | 203 | 1.0 | 3.0 | 0.00 | 0.02 | 0.00 | 62 | 1007.1 |
| 20260903085016 | 60 | 338 | 5.0 | 12.0 | 0.00 | 0.02 | 0.00 | 59 | 1006.9 |
| 20260903083537 | 61 | 248 | 5.0 | 13.0 | 0.00 | 0.02 | 0.00 | 59 | 1006.6 |
| 20260903082036 | 63 | 158 | 2.0 | 7.0 | 0.00 | 0.02 | 0.00 | 66 | 1006.4 |
| 20260903080516 | 64 | 248 | 3.0 | 8.0 | 0.00 | 0.02 | 0.00 | 60 | 1006.1 |
| 20260903075016 | 65 | 135 | 5.0 | 12.0 | 0.00 | 0.02 | 0.00 | 62 | 1006.3 |
| 20260903073536 | 65 | 158 | 4.0 | 10.0 | 0.00 | 0.02 | 0.00 | 61 | 1006.2 |
| 20260903072016 | 65 | 135 | 2.0 | 8.0 | 0.00 | 0.02 | 0.00 | 60 | 1005.8 |
| 20260903070536 | 66 | 158 | 3.0 | 9.0 | 0.00 | 0.02 | 0.00 | 59 | 1005.8 |
| 20260903065017 | 66 | 135 | 4.0 | 11.0 | 0.00 | 0.02 | 0.02 | 59 | 1005.8 |
| 20260903063537 | 66 | 135 | 4.0 | 9.0 | 0.00 | 0.02 | 0.02 | 60 | 1005.8 |
| 20260903062017 | 66 | 135 | 4.0 | 11.0 | 0.00 | 0.02 | 0.02 | 59 | 1005.7 |
| 20260903060517 | 66 | 135 | 2.0 | 5.0 | 0.00 | 0.02 | 0.02 | 63 | 1005.6 |
| 20260903055017 | 66 | 135 | 2.0 | 4.0 | 0.00 | 0.02 | 0.02 | 60 | 1005.5 |
| 20260903053517 | 67 | 180 | 4.0 | 9.0 | 0.00 | 0.02 | 0.02 | 61 | 1005.7 |
| 20260903052017 | 67 | 180 | 6.0 | 14.0 | 0.00 | 0.02 | 0.02 | 62 | 1005.6 |
| 20260903050517 | 67 | 180 | 6.0 | 14.0 | 0.00 | 0.02 | 0.02 | 61 | 1005.6 |
| 20260903045017 | 67 | 180 | 7.0 | 14.0 | 0.00 | 0.02 | 0.02 | 59 | 1005.5 |
| 20260903043517 | 68 | 135 | 8.0 | 18.0 | 0.00 | 0.02 | 0.02 | 57 | 1005.6 |
| 20260903042017 | 68 | 158 | 7.0 | 21.0 | 0.00 | 0.02 | 0.02 | 53 | 1005.4 |
| 20260903040517 | 69 | 135 | 8.0 | 18.0 | 0.00 | 0.02 | 0.02 | 55 | 1005.3 |
| 20260903035057 | 70 | 158 | 8.0 | 20.0 | 0.00 | 0.02 | 0.02 | 50 | 1005.1 |